Lincoln, CA

2:08 PM PDT on May 23, 2018 (GMT -0700)
Lincoln Regional-Harder

Weather History for KLHM - November, 2012

Change the Weather History Date:

Thursday, November 22, 2012

  Actual Average (KAUN) Record (KAUN)
Temperature  
Mean Temperature 48 °F -  
Max Temperature 60 °F 57 °F 75 °F (2017)
Min Temperature 35 °F 40 °F 30 °F (2003)
Degree Days  
Heating Degree Days 18    
Moisture  
Dew Point 43 °F    
Average Humidity 85    
Maximum Humidity 100    
Minimum Humidity 52    
Precipitation  
Precipitation 0.00 in - - ()
Sea Level Pressure  
Sea Level Pressure 30.20 in    
Wind  
Wind Speed 3 mph (North)    
Max Wind Speed 7 mph    
Max Gust Speed -    
Visibility 6 miles    
Events      
Averages and records for this station are not official NWS values.
T = Trace of Precipitation, MM = Missing Value Source: NWS Daily Summary

Daily Weather History Graph

Daily Weather History Graph

Search for Another Location

Airport or City:

Astronomy

Nov. 22, 2012 Rise Set
Actual Time 6:56 AM PST 4:46 PM PST
Civil Twilight 6:27 AM PST 5:15 PM PST
Nautical Twilight 5:54 AM PST 5:48 PM PST
Astronomical Twilight 5:22 AM PST 6:20 PM PST
Moon 1:32 PM PST (11/22) 1:24 AM PST (11/22)
Length of Visible Light 10h 48m
Length of Day
9h 50m
Waxing Gibbous, 72% of the Moon is Illuminated
Nov 22
Waxing Gibbous
Nov 28
Full
Dec 6
Last Quarter
Dec 13
New
Dec 19
First Quarter

Hourly Weather History & Observations

Time (PST) Temp. Windchill Dew Point Humidity Pressure Visibility Wind Dir Wind Speed Gust Speed Precip Events Conditions
12:15 AM 42.8 °F - 42.8 °F 100% 30.18 in 1.5 mi Calm Calm - N/A   Unknown
12:35 AM 42.8 °F 40.1 °F 42.8 °F 100% 30.19 in 5.0 mi NNW 4.6 mph - N/A   Clear
12:55 AM 46.4 °F - 44.6 °F 93% 30.19 in 10.0 mi Calm Calm - N/A   Clear
1:15 AM 44.6 °F 42.2 °F 44.6 °F 100% 30.19 in 0.8 mi NNW 4.6 mph - N/A   Unknown
1:35 AM 44.6 °F 40.7 °F 42.8 °F 93% 30.19 in 1.8 mi NNW 6.9 mph - N/A   Unknown
1:55 AM 44.6 °F 41.4 °F 42.8 °F 93% 30.19 in 1.5 mi North 5.8 mph - N/A   Unknown
2:15 AM 44.6 °F 40.7 °F 42.8 °F 93% 30.19 in 7.0 mi NNW 6.9 mph - N/A   Clear
2:55 AM 42.8 °F 40.1 °F 42.8 °F 100% 30.19 in 0.2 mi NNW 4.6 mph - N/A   Overcast
3:15 AM 42.8 °F 41.1 °F 42.8 °F 100% 30.19 in 0.2 mi NNW 3.5 mph - N/A   Overcast
3:35 AM 42.8 °F 41.1 °F 42.8 °F 100% 30.19 in 0.2 mi WNW 3.5 mph - N/A   Overcast
3:55 AM 42.8 °F 40.1 °F 41.0 °F 93% 30.18 in 0.2 mi NW 4.6 mph - N/A   Overcast
4:15 AM 42.8 °F 40.1 °F 42.8 °F 100% 30.18 in 0.2 mi NNW 4.6 mph - N/A   Overcast
4:35 AM 42.8 °F 40.1 °F 41.0 °F 93% 30.18 in 0.5 mi North 4.6 mph - N/A   Overcast
4:55 AM 42.8 °F 39.3 °F 41.0 °F 93% 30.19 in 0.8 mi NNW 5.8 mph - N/A   Mostly Cloudy
5:15 AM 41.0 °F 37.1 °F 41.0 °F 100% 30.19 in 10.0 mi NW 5.8 mph - N/A   Clear
5:35 AM 41.0 °F 39.0 °F 41.0 °F 100% 30.19 in 10.0 mi NNW 3.5 mph - N/A   Clear
5:55 AM 41.0 °F 38.0 °F 41.0 °F 100% 30.19 in 10.0 mi NNW 4.6 mph - N/A   Clear
6:15 AM 41.0 °F - 39.2 °F 93% 30.19 in 1.0 mi Calm Calm - N/A   Unknown
6:55 AM 35.6 °F 31.7 °F 35.6 °F 100% 30.21 in 0.2 mi NE 4.6 mph - N/A   Overcast
7:15 AM 35.6 °F 32.8 °F 35.6 °F 100% 30.22 in 0.2 mi NNW 3.5 mph - N/A   Overcast
8:15 AM 42.8 °F - 42.8 °F 100% 30.23 in 10.0 mi Calm Calm - N/A   Scattered Clouds
8:35 AM 44.6 °F - 44.6 °F 100% 30.24 in 10.0 mi Calm Calm - N/A   Scattered Clouds
8:55 AM 46.4 °F - 46.4 °F 100% 30.24 in 10.0 mi Calm Calm - N/A   Scattered Clouds
9:15 AM 46.4 °F - 46.4 °F 100% 30.24 in 10.0 mi Calm Calm - N/A   Scattered Clouds
9:35 AM 48.2 °F - 46.4 °F 93% 30.24 in 10.0 mi Calm Calm - N/A   Clear
9:55 AM 50.0 °F - 46.4 °F 87% 30.24 in 10.0 mi Calm Calm - N/A   Clear
10:15 AM 50.0 °F - 44.6 °F 82% 30.25 in 10.0 mi WNW 3.5 mph - N/A   Clear
10:35 AM 51.8 °F - 44.6 °F 76% 30.25 in 10.0 mi WNW 3.5 mph - N/A   Clear
10:55 AM 53.6 °F - 44.6 °F 72% 30.25 in 10.0 mi WNW 6.9 mph - N/A   Clear
11:15 AM 53.6 °F - 46.4 °F 77% 30.23 in 10.0 mi NNW 4.6 mph - N/A   Clear
11:35 AM 55.4 °F - 44.6 °F 67% 30.22 in 10.0 mi NNW 3.5 mph - N/A   Clear
11:55 AM 55.4 °F - 44.6 °F 67% 30.21 in 10.0 mi NNW 3.5 mph - N/A   Clear
12:15 PM 57.2 °F - 44.6 °F 63% 30.20 in 10.0 mi Calm Calm - N/A   Clear
12:35 PM 59.0 °F - 44.6 °F 59% 30.20 in 10.0 mi West 3.5 mph - N/A   Clear
12:55 PM 59.0 °F - 44.6 °F 59% 30.19 in 10.0 mi NW 3.5 mph - N/A   Clear
1:15 PM 59.0 °F - 44.6 °F 59% 30.19 in 10.0 mi WNW 4.6 mph - N/A   Clear
1:35 PM 60.8 °F - 44.6 °F 55% 30.19 in 10.0 mi West 4.6 mph - N/A   Clear
1:55 PM 60.8 °F - 44.6 °F 55% 30.18 in 10.0 mi WNW 3.5 mph - N/A   Clear
2:15 PM 60.8 °F - 44.6 °F 55% 30.18 in 10.0 mi Calm Calm - N/A   Clear
2:35 PM 60.8 °F - 44.6 °F 55% 30.18 in 10.0 mi WNW 3.5 mph - N/A   Clear
2:55 PM 60.8 °F - 42.8 °F 52% 30.18 in 10.0 mi NNW 3.5 mph - N/A   Clear
3:15 PM 60.8 °F - 42.8 °F 52% 30.18 in 10.0 mi Calm Calm - N/A   Clear
3:35 PM 60.8 °F - 42.8 °F 52% 30.18 in 10.0 mi NNW 3.5 mph - N/A   Clear
3:55 PM 60.8 °F - 42.8 °F 52% 30.18 in 10.0 mi Calm Calm - N/A   Clear
4:15 PM 59.0 °F - 44.6 °F 59% 30.18 in 10.0 mi Calm Calm - N/A   Clear
4:35 PM 57.2 °F - 44.6 °F 63% 30.18 in 10.0 mi Calm Calm - N/A   Clear
4:55 PM 55.4 °F - 46.4 °F 72% 30.18 in 10.0 mi Calm Calm - N/A   Clear
5:55 PM 53.6 °F - 46.4 °F 77% 30.19 in 0.8 mi Calm Calm - N/A   Unknown
6:15 PM 50.0 °F - 44.6 °F 82% 30.19 in 2.0 mi Calm Calm - N/A   Clear
6:35 PM 48.2 °F - 44.6 °F 87% 30.19 in 1.0 mi Calm Calm - N/A   Unknown
6:55 PM 44.6 °F - 42.8 °F 93% 30.19 in 4.0 mi Calm Calm - N/A   Clear
7:15 PM 44.6 °F 43.1 °F 42.8 °F 93% 30.20 in 5.0 mi East 3.5 mph - N/A   Clear
7:35 PM 44.6 °F 43.1 °F 42.8 °F 93% 30.20 in 1.5 mi East 3.5 mph - N/A   Unknown
7:55 PM 42.8 °F 40.1 °F 42.8 °F 100% 30.20 in 3.0 mi East 4.6 mph - N/A   Clear
8:15 PM 42.8 °F 40.1 °F 41.0 °F 93% 30.21 in 3.0 mi East 4.6 mph - N/A   Clear
8:35 PM 44.6 °F 41.4 °F 42.8 °F 93% 30.21 in 0.5 mi East 5.8 mph - N/A   Unknown
8:55 PM 42.8 °F 40.1 °F 41.0 °F 93% 30.21 in 0.8 mi East 4.6 mph - N/A   Unknown
9:15 PM 42.8 °F 41.1 °F 41.0 °F 93% 30.22 in 0.5 mi ESE 3.5 mph - N/A   Unknown
9:35 PM 42.8 °F 40.1 °F 42.8 °F 100% 30.22 in 5.0 mi East 4.6 mph - N/A   Clear
9:55 PM 44.6 °F - 42.8 °F 93% 30.22 in 7.0 mi Calm Calm - N/A   Clear
10:15 PM 42.8 °F - 41.0 °F 93% 30.23 in 5.0 mi Calm Calm - N/A   Clear
10:35 PM 42.8 °F 41.1 °F 42.8 °F 100% 30.23 in 5.0 mi East 3.5 mph - N/A   Clear
10:55 PM 42.8 °F 40.1 °F 41.0 °F 93% 30.23 in 4.0 mi East 4.6 mph - N/A   Clear
11:15 PM 41.0 °F 38.0 °F 41.0 °F 100% 30.24 in 10.0 mi ENE 4.6 mph - N/A   Clear
11:55 PM 42.8 °F 39.3 °F 41.0 °F 93% 30.24 in 3.0 mi East 5.8 mph - N/A   Clear